sat.trackr.live / text

‹ back to catalog

STARLINK-37158

NORAD 68343 · 2026-059Y

PAYLOAD ACTIVE UNKNOWN

§ Identity

Operator
Country
US
Launch date
2026-03-22
Launch site
AFETR
Launch vehicle
Mass (kg)
RCS (m²)

Purposes: comms

External: N2YO · Heavens-Above · Gunter

§ Orbital elements

Epoch: 2026-09-19T23:17:30.496704Z

Period
93.85 min
Inclination
53.1595°
Eccentricity
0.0000428
Mean motion
15.34390283 rev/d
Perigee alt
462.4 km
Apogee alt
463.0 km
Semi-major
6,840.9 km
B*
4.0324e-4
RAAN
158.5430°
Arg perigee
80.1132°
Mean anomaly
279.9919°
Rev number
2,802

§ Raw data

STARLINK-371581 68343U 26059Y   26262.97049186  .00013268  00000+0  40324-3 0  99932 68343  53.1595 158.5430 0000428  80.1132 279.9919 15.34390283 28025

JSON: /api/v1/satellites/68343 · /tle

For live sub-satellite position, see the globe view (requires WebGL).

§ Visibility from observer

Set your observer location to see the next 7 days of passes ≥ 10°. The values pass through the URL so the page stays shareable.

No JS? Fill the form by hand. The geolocation button needs JavaScript.